Theta_e
309 309 309 309 309 309 309 309 309 308 309 309 308 307 306 305 306 306 305 306 306 307 308 302 300 301 300 299 300 301 300 299 299 299 299 299 299 299 300 299 299 300 300 300 299 299 299 299 299 299 298 297 296 294 294 293 293 296 297 297 296 296 297 297 298 298 296 293 292 294 294 294 295 294 292 292 292 292 293 293 292 292 293 293 292 292 293
309 309 309 309 309 309 308 308 308 307 307 308 307 307 305 304 305 305 306 307 306 309 309 305 303 301 299 299 300 300 300 300 300 301 300 299 299 300 301 299 299 299 298 299 299 299 299 299 298 298 298 296 294 294 294 294 295 296 297 297 297 297 297 297 297 297 296 295 295 295 294 295 295 293 291 290 291 291 291 290 289 291 293 292 291 291 292
308 308 308 308 308 308 308 308 308 308 308 308 307 307 305 306 305 304 305 306 307 307 305 304 305 303 302 301 300 300 301 300 300 300 300 298 298 299 300 298 298 298 297 298 299 298 298 298 298 297 297 296 293 294 295 295 295 295 294 295 296 297 297 296 295 295 296 296 296 296 296 296 295 293 291 290 290 291 291 291 291 291 292 291 291 291 291
308 308 308 308 308 308 308 308 308 308 308 308 308 307 306 307 307 306 306 305 304 303 300 302 304 304 306 304 299 299 302 300 299 299 300 299 298 298 299 297 298 298 298 299 300 298 296 297 298 299 298 296 293 294 296 295 294 295 294 293 294 296 297 296 295 295 296 296 296 296 297 296 296 295 293 290 290 289 291 292 291 291 291 291 290 290 290
308 308 308 308 308 308 308 308 308 308 308 308 308 307 307 308 308 306 307 305 304 304 301 301 301 302 305 305 300 300 302 300 298 299 299 299 298 298 298 297 299 301 299 300 300 298 296 296 298 298 297 296 294 293 295 295 294 295 294 292 293 297 298 296 296 296 296 296 296 296 296 295 295 295 293 291 290 289 290 291 291 290 290 289 289 288 288
308 308 308 308 308 308 308 308 308 308 308 308 308 307 307 309 305 302 304 306 306 307 304 300 299 300 301 301 299 302 304 301 301 301 299 298 298 299 299 299 299 300 299 299 299 299 298 298 298 297 297 297 296 295 295 295 294 295 294 292 292 296 297 296 296 296 295 295 295 295 295 294 293 293 292 291 290 289 290 290 290 289 288 288 288 287 286
308 308 308 308 308 308 308 308 308 308 308 308 309 308 306 306 304 301 302 304 302 302 301 299 300 300 300 301 301 303 305 303 300 299 299 299 298 298 300 299 298 299 298 298 299 299 299 300 299 298 298 298 297 297 297 296 294 294 295 292 291 293 296 296 295 295 295 294 294 294 293 293 292 292 292 291 291 290 290 290 288 287 287 287 286 285 285
308 308 309 309 309 309 309 309 308 308 309 308 309 309 306 306 306 303 302 302 298 298 299 299 302 303 302 304 302 300 303 303 299 298 299 300 299 299 300 300 298 298 298 298 298 298 297 298 298 297 298 298 297 296 297 296 296 295 295 294 292 293 296 296 293 295 295 294 293 293 292 291 291 291 291 291 291 290 289 288 287 286 286 286 285 285 285
309 309 309 309 309 309 309 309 309 308 309 308 308 308 307 306 306 304 305 302 298 298 298 297 304 306 303 303 302 300 302 302 300 299 298 300 301 300 299 300 298 296 298 299 299 297 296 297 297 296 296 297 296 295 295 295 297 298 296 293 293 294 294 293 292 294 295 294 293 292 291 290 291 291 291 290 289 288 287 287 286 286 286 285 285 285 285
309 309 309 309 309 309 309 309 309 308 309 309 308 308 307 306 306 305 307 304 298 296 297 298 305 307 301 300 301 301 301 298 298 301 300 299 301 300 299 299 298 298 298 298 298 297 297 296 296 296 296 295 295 295 294 293 295 297 295 292 290 291 293 293 291 293 294 293 292 291 290 291 292 291 290 289 287 286 286 286 286 286 285 285 284 284 285
309 308 309 309 309 309 309 309 309 308 309 309 308 308 307 307 307 305 307 308 300 295 298 303 305 302 298 298 300 299 299 297 298 300 301 299 299 300 299 298 299 299 298 296 297 297 296 296 296 295 295 295 294 294 294 293 292 292 292 292 291 291 293 292 290 292 293 292 290 291 293 292 291 291 289 288 286 286 285 285 285 285 285 285 285 285 285
308 309 309 309 309 309 309 309 309 308 308 308 308 309 307 307 307 306 307 310 303 296 300 304 300 297 298 299 300 299 299 299 298 299 300 299 299 300 300 298 300 300 297 296 297 296 295 295 294 294 294 294 294 294 294 294 292 290 290 292 294 294 293 291 289 290 292 291 290 292 293 291 290 290 290 288 287 286 285 285 285 285 285 285 284 284 285
309 309 309 310 310 310 310 310 309 309 309 308 308 309 308 307 308 307 306 309 303 298 300 300 296 297 300 298 298 299 299 299 299 299 299 299 299 300 300 299 299 298 297 297 296 295 294 294 294 294 295 294 294 295 293 292 292 292 291 291 293 294 292 290 289 289 290 290 289 291 291 291 290 290 289 288 286 285 285 285 285 285 285 285 284 284 285
311 310 311 311 311 311 311 310 310 310 309 308 308 309 308 307 308 307 306 308 302 295 297 301 298 298 299 298 298 299 298 298 299 299 299 299 299 300 299 299 299 298 297 297 295 294 295 295 296 296 294 294 295 295 293 292 292 291 291 290 291 293 292 290 290 289 289 289 289 290 290 290 290 289 288 287 286 285 285 284 284 285 285 285 284 284 284
312 311 312 311 311 312 311 311 311 310 309 308 308 309 308 307 307 307 306 308 303 296 297 301 300 298 298 299 299 299 300 300 300 299 299 299 299 299 299 299 298 298 297 296 294 294 295 297 299 299 297 297 297 295 293 293 292 290 289 288 289 290 290 290 290 289 288 288 289 289 290 290 289 288 287 287 286 285 285 284 284 285 285 285 284 284 284
312 312 312 312 312 311 311 311 311 310 310 309 309 309 309 307 307 307 306 306 306 304 300 299 299 300 300 299 299 300 301 302 301 300 300 300 299 298 298 299 298 297 296 295 294 296 298 298 298 298 298 298 297 296 295 295 294 291 289 289 289 289 288 289 289 288 287 287 288 288 289 289 288 287 287 286 286 285 285 284 284 285 285 284 284 284 284
312 312 312 312 312 311 311 311 311 311 310 310 309 309 309 308 306 307 307 306 307 304 301 299 300 300 300 300 300 299 300 300 300 300 302 301 298 297 298 298 297 297 296 295 295 298 300 298 296 296 297 294 294 296 295 294 294 293 292 291 291 289 288 288 289 289 287 287 288 288 288 288 287 286 286 286 285 285 284 283 284 285 284 284 284 283 283
312 312 312 312 312 312 312 311 311 311 310 309 309 309 309 308 307 306 307 306 305 301 299 301 301 300 300 300 300 299 299 299 299 299 301 299 296 298 299 297 296 297 296 297 298 299 300 297 295 296 297 293 292 295 295 294 294 294 293 292 291 290 288 287 287 288 288 288 288 287 288 287 286 286 286 286 285 285 284 283 284 284 284 283 283 283 283
311 311 311 311 311 311 311 311 310 310 310 310 309 309 308 308 307 306 307 306 305 301 300 301 300 300 300 299 299 298 298 298 298 300 301 300 298 298 298 297 297 297 296 297 298 297 298 297 293 293 295 294 293 294 295 294 293 293 292 292 291 290 289 287 287 288 288 287 287 287 288 287 286 286 286 285 284 283 283 284 284 284 283 283 283 283 283
311 311 311 311 311 311 310 311 311 310 311 310 309 308 308 307 307 307 307 306 305 301 298 299 299 298 299 298 298 298 298 298 298 299 300 300 298 298 300 300 299 297 296 298 298 294 296 297 293 291 294 295 294 294 294 292 292 292 291 291 290 290 290 289 288 287 287 287 286 287 287 287 286 286 285 285 284 283 284 284 284 283 283 283 282 283 282
310 311 310 310 311 310 310 310 310 310 311 310 309 308 308 307 307 307 306 305 305 302 298 298 298 297 298 298 298 298 298 298 299 298 298 299 298 298 301 300 298 297 297 298 297 294 294 296 293 292 294 294 293 294 293 292 292 291 289 290 290 288 288 289 287 285 285 286 286 286 287 287 286 285 284 284 284 284 284 284 283 283 283 282 282 282 282
310 310 310 310 310 310 309 309 309 310 310 309 308 308 308 307 307 306 305 305 304 301 297 297 298 297 298 298 298 298 298 298 298 297 298 298 298 298 299 298 297 298 297 295 296 296 294 294 293 294 295 294 293 293 290 291 294 291 287 288 289 288 288 288 287 286 286 286 286 287 287 287 286 285 284 284 284 284 283 283 283 283 282 282 282 281 281
309 309 309 309 309 309 309 309 308 309 309 307 307 308 308 306 306 305 304 304 303 299 296 297 297 297 298 298 298 298 298 298 298 297 297 298 297 297 298 297 297 298 296 296 297 296 295 294 294 294 295 293 293 293 290 290 292 291 289 289 288 287 288 288 287 287 287 286 287 287 286 286 285 284 284 284 284 283 283 283 282 282 282 282 281 281 280
309 309 309 309 309 308 308 308 308 308 308 307 307 308 307 306 305 304 303 303 302 300 297 297 297 297 297 298 298 298 298 297 297 297 297 297 297 297 297 297 297 297 297 297 297 295 295 294 291 292 295 293 292 294 293 291 291 289 289 289 288 286 287 287 286 286 286 286 287 286 285 285 284 284 284 284 283 283 283 282 282 282 281 281 281 280 280
308 308 308 308 308 308 308 307 307 307 307 306 306 306 306 305 304 304 304 303 302 302 299 297 296 297 297 297 297 298 298 297 297 297 297 297 296 297 297 296 297 297 296 297 296 295 295 294 292 293 295 293 291 293 293 291 290 289 289 288 287 286 286 286 286 285 285 285 286 286 285 285 284 284 284 284 283 283 282 282 282 281 280 280 280 280 279
307 307 307 307 307 307 307 307 306 306 306 305 305 305 305 305 304 303 304 304 302 301 299 296 296 296 296 297 297 297 297 297 297 297 296 296 296 296 296 296 296 296 296 296 296 296 295 293 292 293 294 292 291 292 292 290 290 289 288 288 286 285 286 286 285 285 285 285 285 285 284 284 284 284 284 283 283 282 282 281 281 280 280 280 280 279 278
306 307 307 307 307 307 307 306 306 306 305 304 304 304 305 304 304 303 304 304 303 302 300 297 296 296 296 297 297 297 297 297 297 296 296 296 296 296 296 296 296 296 296 296 296 296 295 294 293 292 292 291 290 289 288 289 288 287 287 288 286 285 286 286 285 284 284 284 285 284 284 284 284 284 283 283 282 282 281 281 281 280 280 280 279 278 277
306 306 306 307 306 306 306 306 305 305 304 304 304 304 304 304 304 303 303 303 304 303 301 297 296 297 297 297 297 297 296 296 296 296 296 296 296 297 297 296 296 296 297 297 297 296 295 295 294 291 289 290 291 289 287 288 288 288 288 287 287 286 285 285 284 284 284 284 285 284 284 283 284 283 283 282 282 281 281 281 280 280 279 279 278 277 277
306 306 306 306 306 306 306 305 305 304 304 304 304 304 304 304 303 303 303 303 303 302 301 298 297 297 297 296 296 296 296 296 296 296 295 295 296 297 297 297 296 296 296 296 296 296 294 293 293 291 290 291 291 289 288 289 289 289 288 287 286 286 285 285 285 284 284 284 284 283 283 283 283 282 282 281 281 281 281 280 280 279 278 278 277 276 276
305 305 305 305 305 305 305 305 305 305 305 304 304 304 304 303 302 302 302 302 302 302 301 300 299 297 296 296 296 296 296 296 295 295 295 295 295 296 297 297 297 296 296 296 295 295 294 293 292 292 292 291 290 289 289 288 288 288 288 287 286 286 285 285 284 284 284 283 283 282 282 282 282 282 282 281 281 280 280 279 279 278 278 277 276 276 275
305 305 305 305 305 305 305 305 305 305 305 305 304 304 303 302 301 301 301 301 302 302 301 300 298 296 296 296 295 295 296 296 295 295 295 295 295 296 296 296 296 296 296 296 295 295 294 294 293 292 291 292 291 289 287 287 287 288 287 286 286 286 286 285 284 283 282 282 282 282 282 282 282 282 281 281 280 280 279 279 278 277 277 276 276 276 275
304 305 305 305 305 305 305 305 304 304 304 305 304 303 302 302 301 301 301 301 301 302 301 300 298 297 296 296 295 295 296 297 296 295 295 295 294 295 295 295 296 296 295 295 295 294 293 294 293 291 291 291 288 284 284 287 289 288 286 286 286 285 285 284 283 282 282 282 282 282 282 282 281 281 280 280 280 279 279 278 277 277 276 276 276 275 275
304 304 304 305 305 304 304 304 304 304 304 304 303 302 301 301 302 302 302 301 301 302 302 300 297 295 295 295 295 295 296 296 296 295 295 295 294 294 295 295 295 295 295 294 294 294 293 293 292 291 290 290 286 283 284 288 288 287 286 286 285 284 284 283 282 282 282 281 281 282 282 281 280 280 280 280 280 279 278 277 277 276 276 276 276 275 274
303 304 304 304 304 304 304 303 303 303 303 303 303 302 301 301 301 302 302 302 301 302 301 299 298 297 297 296 295 295 295 295 295 294 294 294 294 293 294 295 295 294 294 293 293 293 292 291 291 290 289 287 286 286 288 288 287 286 286 285 284 284 283 282 282 282 281 281 281 281 280 280 280 280 280 280 280 279 278 277 277 276 275 275 275 275 275
303 303 304 304 304 304 304 303 303 303 302 302 302 302 301 302 301 302 302 302 301 302 300 298 298 299 298 299 299 297 295 295 295 294 293 294 294 293 293 294 294 293 293 293 293 293 291 291 291 290 288 287 288 289 289 288 287 286 285 285 284 283 283 282 282 282 281 281 281 280 280 280 280 280 280 279 279 278 277 277 277 276 275 275 276 275 275
303 303 304 304 304 304 303 303 303 302 302 302 302 301 302 302 301 301 301 301 302 302 299 297 295 294 295 297 298 296 294 295 294 293 293 293 294 293 293 293 293 292 291 292 292 290 290 290 291 289 288 288 290 290 288 287 286 286 285 285 284 283 282 282 282 281 281 281 281 281 280 280 280 279 279 279 279 278 277 277 277 276 275 275 275 275 274
303 303 303 304 304 304 303 303 303 302 302 302 301 301 302 301 301 301 301 301 300 300 298 297 295 292 292 294 294 293 294 295 293 292 292 293 293 292 292 293 293 291 291 291 290 289 289 290 290 290 290 290 289 288 287 286 286 285 285 285 284 283 282 282 281 281 281 281 281 281 280 280 280 280 280 279 279 278 277 277 276 275 275 275 274 274 274
303 303 303 303 304 303 303 303 302 302 302 301 301 301 302 301 301 300 300 299 299 298 297 296 293 291 291 293 293 294 294 293 292 292 292 293 293 292 292 292 292 291 291 291 288 287 289 289 286 287 290 289 287 287 287 287 286 286 285 285 284 283 282 282 281 281 281 281 280 280 280 280 280 280 280 279 279 278 277 276 276 275 275 275 274 274 274
303 303 303 303 303 303 302 302 302 302 301 301 301 301 301 301 302 300 298 297 297 296 295 294 292 291 292 292 292 293 293 292 291 292 292 292 293 293 292 292 291 290 291 292 288 287 290 289 285 286 290 288 286 287 288 287 286 286 285 285 284 283 282 282 281 281 280 280 280 280 280 280 279 279 279 279 278 277 277 276 276 276 275 275 275 274 274
303 303 303 303 302 302 302 302 302 302 301 301 302 302 301 301 300 298 297 299 298 295 294 293 292 291 292 291 291 292 292 291 291 291 291 292 292 291 291 292 290 289 292 293 289 288 290 290 286 288 290 289 287 288 288 286 286 286 285 285 285 284 282 282 282 281 280 280 280 280 280 279 279 279 279 278 277 276 276 276 276 276 275 275 275 274 274
302 303 303 303 302 302 302 302 302 302 301 302 302 300 298 298 297 294 296 300 299 295 292 293 292 291 291 291 290 291 291 290 290 290 290 291 290 290 291 291 288 289 294 293 287 286 288 289 289 289 290 289 288 288 287 286 286 286 285 285 285 284 282 282 282 281 281 280 280 280 279 279 279 279 279 278 277 276 276 276 276 276 275 275 275 274 274
302 302 302 302 302 302 302 302 302 302 302 302 302 297 293 295 297 296 296 298 297 293 292 293 292 291 291 291 291 290 290 290 290 290 291 291 290 289 289 288 288 291 293 289 285 286 289 291 292 291 289 288 288 287 286 286 286 285 285 285 285 284 283 282 281 281 281 280 280 279 279 279 279 279 279 278 277 277 277 276 276 275 275 275 275 275 275
302 302 302 302 302 302 302 302 302 301 300 302 303 301 298 297 297 295 294 294 293 293 293 293 292 292 292 292 290 290 290 290 291 290 289 290 289 288 288 290 291 291 289 285 286 290 292 292 292 291 289 288 288 287 286 286 286 285 285 285 284 284 283 282 282 281 281 280 280 279 279 279 279 279 278 278 277 277 277 277 276 276 276 275 275 275 275
302 302 302 302 302 302 302 302 301 301 301 300 302 303 304 302 299 296 295 295 294 293 293 292 291 292 292 291 290 290 290 290 290 290 289 288 288 289 292 293 292 288 287 287 289 291 290 289 289 289 288 288 288 287 286 286 285 285 285 285 284 284 284 283 282 282 281 280 280 279 279 279 279 278 278 278 277 277 277 276 276 276 276 275 276 276 275
302 302 302 302 302 301 302 302 301 301 301 301 301 303 304 303 301 299 297 295 293 293 292 292 291 291 291 290 290 290 289 289 290 290 288 287 288 291 292 290 288 286 288 290 291 290 289 289 289 289 288 288 288 286 286 285 285 285 285 285 285 284 284 283 283 282 281 280 280 279 279 279 279 278 278 278 278 277 277 276 276 276 276 275 275 275 274
302 301 302 303 302 300 300 302 303 301 299 298 298 299 299 297 296 295 294 293 293 292 292 291 291 291 290 290 290 289 289 289 290 288 286 287 291 292 288 287 288 289 290 292 293 293 292 290 289 288 289 288 287 286 286 285 285 285 285 285 285 284 284 283 283 282 282 281 280 279 279 278 278 278 278 278 278 277 277 276 276 276 275 275 275 274 273
302 300 301 303 303 300 299 301 301 299 297 296 296 296 295 294 294 293 294 294 293 292 291 291 291 291 290 289 289 289 288 288 288 287 286 288 291 290 287 288 291 291 290 292 295 294 291 289 288 288 288 288 287 286 286 285 285 285 285 285 285 284 284 283 283 283 282 281 280 279 279 278 278 278 278 278 278 277 277 276 276 276 275 275 275 274 273
301 301 302 303 302 300 299 299 298 296 296 297 296 295 295 294 293 293 293 293 292 292 292 292 291 290 290 288 288 288 287 287 289 288 286 286 289 291 291 293 293 291 289 290 293 292 289 288 288 288 288 288 287 286 285 285 285 285 285 285 285 284 284 284 283 283 283 282 280 279 278 278 278 278 277 277 278 277 277 276 276 275 275 275 274 274 273
300 301 301 301 299 298 297 297 296 296 297 297 296 295 294 294 293 293 293 292 292 292 292 291 291 291 290 287 287 288 288 287 288 288 286 288 292 293 292 293 296 294 290 288 289 289 288 288 288 288 287 288 287 286 285 285 285 285 285 285 284 284 284 283 283 283 283 282 281 279 278 277 277 277 277 277 277 277 276 276 276 275 274 274 274 273 273
300 300 300 299 299 299 297 296 297 298 297 296 296 296 295 294 293 293 292 292 292 292 291 291 290 289 287 287 289 291 290 286 285 287 291 293 293 291 289 292 296 296 291 288 287 288 289 288 288 288 288 287 287 286 286 285 285 285 285 284 284 284 284 283 283 283 283 282 281 279 278 277 277 277 277 277 277 276 276 276 275 275 274 273 273 273 272
300 299 298 297 298 298 297 298 299 299 297 296 297 296 295 294 294 293 293 293 292 292 291 291 289 288 289 291 293 292 289 286 285 289 291 289 287 288 292 295 294 292 290 289 289 289 289 288 288 288 287 287 287 286 285 285 285 285 284 284 284 284 283 283 283 283 283 282 281 279 278 277 277 277 277 276 276 276 275 275 275 274 273 273 273 272 271
299 298 297 297 297 297 296 297 297 297 296 296 296 295 295 294 293 293 293 293 292 291 291 290 289 290 293 293 290 288 288 288 289 292 292 288 285 288 294 294 291 289 290 290 289 289 289 288 288 288 287 287 287 286 285 285 285 285 284 284 284 283 283 283 283 282 282 281 280 279 278 277 277 277 276 276 276 275 274 274 274 273 273 272 271 271 270
Wind_Speed
16 15 13 12 10 8 7 6 6 5 5 5 6 8 11 13 8 5 7 8 10 13 10 5 4 4 3 3 4 3 3 2 1 1 1 1 1 1 1 1 1 1 1 1 1 2 1 0 0 0 0 2 3 3 5 4 1 1 1 1 0 1 1 2 4 4 2 5 2 2 5 8 6 5 3 2 1 0 2 3 3 5 7 8 9 13 9
15 14 13 12 11 11 10 11 10 11 12 12 12 15 19 20 18 15 8 3 6 9 5 1 3 2 3 3 3 2 2 2 1 1 1 1 1 1 1 1 1 1 1 0 1 1 1 1 0 1 0 1 1 2 4 3 1 1 1 0 2 1 0 3 6 5 2 1 1 1 2 1 2 3 3 2 2 1 0 1 1 5 7 7 10 12 12
17 16 15 14 14 13 11 10 9 10 10 10 10 12 14 13 16 21 19 11 10 10 8 8 5 2 4 3 1 1 2 2 1 1 1 1 1 1 2 1 1 1 1 1 0 0 1 0 1 1 1 1 1 2 2 2 1 1 1 2 3 2 1 3 5 5 5 6 5 5 5 5 2 3 3 3 3 2 1 2 4 7 8 10 10 12 17
13 12 11 10 9 8 6 6 6 5 5 4 4 5 6 6 5 10 17 20 21 18 14 14 9 4 4 3 1 0 1 1 2 2 1 2 3 3 2 1 0 1 1 1 0 0 1 1 1 1 1 1 1 2 2 2 2 2 1 2 1 1 0 2 2 3 6 8 10 10 9 7 6 3 3 2 1 1 2 4 5 9 13 12 10 13 23
11 10 9 7 6 5 5 5 5 5 6 6 6 7 8 6 3 1 5 12 16 14 10 9 8 5 3 2 1 1 1 1 1 1 1 1 2 2 2 2 1 1 1 1 1 0 1 1 1 1 1 1 1 1 1 2 4 3 2 4 2 1 1 2 1 6 10 11 14 14 9 7 9 8 1 3 2 1 2 5 8 11 12 12 14 20 24
14 13 12 11 10 9 8 7 7 6 6 6 5 7 8 6 4 4 5 3 3 4 5 7 8 6 3 2 1 1 1 1 1 1 1 1 1 1 1 2 3 2 2 2 2 2 1 1 1 1 1 2 1 0 1 1 4 2 2 5 3 1 1 1 1 7 11 13 13 10 6 5 7 7 3 3 3 3 4 8 11 10 10 14 22 28 25
18 18 18 17 16 15 13 12 10 9 9 8 8 10 13 13 10 7 6 6 5 4 5 8 9 7 4 2 1 1 2 1 1 0 1 1 1 1 0 2 3 1 1 1 2 3 2 1 1 1 1 2 1 0 1 0 3 2 2 4 3 1 1 1 1 7 10 10 7 3 4 7 5 4 3 1 1 3 5 10 13 13 14 18 23 28 25
21 21 21 20 20 19 17 16 13 12 11 11 11 12 12 12 10 11 14 12 9 6 4 3 4 3 3 2 1 1 2 1 1 1 1 1 1 1 1 2 2 3 1 0 1 2 3 3 3 2 2 1 1 1 0 0 3 3 2 2 3 3 2 2 1 5 7 3 3 4 6 6 3 5 4 2 6 6 6 10 12 13 17 20 23 24 20
22 21 21 22 21 20 19 18 16 14 13 13 14 15 14 14 15 19 19 10 6 4 3 1 2 1 2 2 2 1 1 2 2 1 0 0 0 1 0 1 2 3 1 1 1 4 4 3 3 2 2 1 0 1 1 0 2 3 2 2 3 3 2 1 1 4 4 2 8 13 7 3 4 4 2 3 6 8 8 9 10 12 17 21 21 17 12
21 21 21 21 21 21 20 19 18 16 14 13 14 15 16 17 17 15 12 6 4 4 2 2 2 1 1 2 2 1 2 3 3 1 1 1 1 1 1 2 2 1 1 2 1 5 5 4 3 2 3 2 3 4 3 3 3 1 1 1 1 1 1 1 2 5 6 7 14 14 3 5 2 2 1 5 10 13 13 11 12 15 15 14 15 13 13
19 19 20 20 20 20 20 20 19 17 14 13 13 13 12 12 13 11 10 7 4 5 2 1 2 2 2 2 2 2 2 3 3 1 0 2 2 2 1 1 0 0 2 1 2 2 3 4 5 6 6 7 8 8 8 9 8 3 1 1 1 1 1 1 2 3 7 11 16 11 2 2 2 3 5 8 12 15 16 16 16 16 13 12 14 15 19
19 19 19 19 19 19 19 19 18 17 16 14 12 12 10 9 9 7 7 5 2 4 3 1 1 2 3 3 3 2 3 3 4 2 1 2 2 2 2 1 1 1 2 2 3 9 13 13 12 11 11 12 12 12 12 11 8 4 1 1 1 2 2 1 0 2 4 8 10 7 4 5 3 5 4 8 9 13 19 20 16 15 16 17 17 19 26
19 19 18 18 18 17 18 18 17 17 18 14 11 11 11 8 6 5 8 8 3 2 3 3 2 4 5 5 4 3 4 3 3 2 2 2 2 2 1 0 1 1 2 2 6 10 8 7 6 7 7 8 8 10 10 8 6 5 4 3 2 2 2 1 1 1 3 5 5 4 6 4 4 5 2 8 10 14 17 19 18 16 14 14 17 24 33
19 19 18 17 17 17 17 17 17 17 18 14 10 10 10 8 6 5 7 7 2 0 5 5 3 4 6 5 4 4 3 2 1 1 2 2 2 2 1 1 3 3 4 1 7 7 2 2 3 2 2 1 1 1 3 2 3 5 6 6 5 3 2 1 2 1 1 5 4 5 8 4 3 3 2 7 10 12 12 15 18 13 9 14 22 28 36
20 19 18 17 16 16 16 16 16 16 17 14 10 10 9 7 6 4 5 10 9 4 3 3 3 5 6 4 3 2 0 0 0 1 2 2 1 1 0 3 4 4 2 2 5 3 1 1 1 0 1 2 2 1 2 2 2 3 4 6 9 6 3 2 2 1 0 3 5 4 5 3 2 2 5 8 9 12 13 15 13 6 12 27 31 30 37
20 20 19 18 17 16 15 15 15 15 15 14 11 9 8 8 7 6 5 11 12 4 2 4 6 6 5 4 3 2 1 0 0 2 2 1 0 1 1 4 4 3 1 2 3 1 1 1 1 1 1 2 2 1 1 2 2 1 1 4 8 7 3 1 1 1 1 2 4 3 3 2 2 3 10 12 13 17 18 13 8 8 25 38 37 36 41
20 20 19 18 17 16 15 14 14 14 14 14 12 9 8 9 9 8 5 8 11 7 5 8 7 5 4 3 2 2 1 1 1 0 1 1 0 1 2 5 4 3 2 2 1 1 2 1 1 1 1 1 1 1 1 0 0 0 1 1 4 4 2 2 1 1 1 3 3 2 3 1 2 6 14 18 20 21 16 8 6 18 35 42 39 39 41
19 19 18 18 17 16 15 14 13 13 13 14 11 9 9 9 9 9 7 8 11 8 7 8 6 4 3 2 2 3 2 1 1 1 1 1 1 2 6 4 2 3 3 2 0 1 1 1 1 1 1 1 0 2 1 0 1 1 1 1 1 1 1 1 1 2 3 3 3 3 3 2 3 9 17 23 22 16 8 6 14 29 40 41 39 40 40
18 17 17 17 16 15 15 13 12 12 12 12 11 10 10 10 9 8 5 6 11 11 8 8 7 6 6 6 6 5 4 3 2 1 1 0 3 8 7 2 2 1 2 0 1 1 0 1 1 0 1 1 0 1 0 1 0 0 1 1 0 0 1 1 1 3 2 2 3 5 3 1 8 19 23 21 14 7 7 16 27 35 39 40 39 39 38
16 16 16 15 14 15 14 13 13 11 10 11 12 9 10 11 10 10 8 7 16 21 14 10 10 10 10 9 8 7 5 4 3 2 0 1 5 9 5 2 0 3 1 1 0 1 1 0 1 1 1 1 1 0 1 1 0 0 0 1 0 0 1 1 1 2 2 2 3 4 2 4 16 21 17 12 9 10 18 27 33 35 36 37 37 37 36
15 15 15 14 14 15 14 14 14 12 11 14 13 9 9 12 11 13 11 6 14 21 16 12 13 12 10 10 9 7 6 5 4 3 2 3 5 5 1 1 2 2 1 0 0 1 1 1 1 1 1 0 1 1 1 1 0 0 0 1 2 2 0 2 1 1 1 1 0 2 8 13 18 16 12 12 16 19 24 29 31 32 34 34 35 36 36
14 14 14 14 14 15 14 14 14 13 13 16 14 10 10 14 13 14 10 4 11 21 19 16 15 13 11 10 9 7 7 6 5 5 5 5 4 3 2 3 4 3 2 1 0 0 1 1 1 1 1 1 1 1 0 0 1 0 1 2 2 3 2 3 2 2 2 5 8 10 16 19 18 17 18 21 22 22 24 28 29 31 32 33 34 37 38
13 13 13 14 14 15 15 14 14 14 14 16 14 11 13 15 15 13 9 7 17 26 22 16 13 11 10 10 9 8 7 6 5 6 8 6 4 4 4 4 4 3 3 3 2 2 2 2 1 1 1 1 1 2 1 1 1 0 1 3 1 1 3 2 1 3 6 10 15 17 18 18 18 19 19 18 19 22 26 29 30 32 33 33 34 37 39
12 12 13 13 14 15 15 14 14 14 15 16 15 14 15 16 14 12 9 9 16 20 16 11 9 8 8 9 8 8 7 6 6 7 9 8 5 4 5 4 4 4 4 4 4 2 3 3 1 1 1 1 2 2 1 2 2 2 2 1 1 2 4 3 3 4 4 5 8 12 17 21 24 23 20 20 24 27 29 31 33 35 38 37 36 37 40
12 12 13 14 15 15 14 14 13 14 15 16 15 14 15 15 14 12 9 8 10 11 9 8 7 8 9 8 8 9 7 6 6 8 10 9 7 6 6 5 5 5 5 5 4 3 2 2 2 1 1 3 3 1 1 1 2 3 3 1 1 2 4 4 5 4 5 9 12 16 19 20 20 18 19 23 29 31 32 34 35 38 43 44 41 40 41
12 13 13 14 14 14 14 13 12 13 15 16 15 14 14 14 14 12 9 8 7 8 8 6 6 8 9 8 8 9 8 7 7 9 10 10 9 7 5 6 6 5 5 4 4 3 2 2 2 0 0 3 3 1 0 1 3 2 2 2 2 3 3 3 5 6 8 10 13 18 18 13 11 15 22 27 30 32 34 35 37 40 44 44 43 43 43
13 14 14 14 14 14 14 13 12 13 14 15 15 14 13 13 13 12 9 8 6 4 6 7 7 8 9 9 9 9 9 9 9 10 11 10 9 7 5 5 5 4 4 4 4 3 1 1 1 0 1 4 5 3 2 2 3 2 1 3 4 3 3 3 4 5 5 7 12 16 13 10 14 22 28 29 29 30 31 32 35 37 38 37 40 45 46
15 15 15 15 15 14 13 12 11 11 11 11 12 12 11 12 14 12 11 11 8 4 9 13 11 8 7 8 10 10 10 10 10 10 11 11 9 8 6 5 4 3 3 4 3 2 1 1 2 3 4 6 5 3 2 2 2 1 2 5 5 4 3 3 4 5 7 10 14 15 13 15 21 26 28 29 29 28 28 30 33 33 33 35 39 43 44
15 15 15 15 14 14 12 11 10 9 8 7 7 7 9 13 15 13 13 14 12 8 13 16 10 5 5 7 9 11 10 11 12 12 11 11 10 8 6 4 3 3 4 4 3 1 2 3 4 4 4 5 4 1 1 3 1 2 3 6 6 5 5 6 7 9 12 14 15 15 16 20 24 26 27 28 27 26 27 31 32 32 34 37 40 42 42
14 14 14 14 13 12 11 9 9 10 8 6 5 5 7 12 15 14 14 14 11 8 8 8 6 4 6 7 11 13 11 10 11 13 12 11 10 8 6 4 3 4 4 4 2 1 2 4 5 3 4 6 5 2 2 2 1 2 5 6 6 7 7 10 11 11 14 16 16 17 19 22 24 25 24 24 25 27 31 33 34 34 37 39 41 42 40
15 14 14 14 13 12 11 9 10 12 10 7 5 4 4 7 11 13 12 11 9 8 6 7 7 6 5 5 9 12 13 10 9 12 12 10 8 7 6 4 4 4 4 3 2 2 3 3 4 4 4 5 5 3 2 2 1 2 4 5 8 10 11 14 14 13 14 16 17 18 20 21 21 21 22 26 30 32 34 35 35 36 38 40 42 41 37
15 14 14 14 13 14 13 11 11 11 9 8 9 9 8 8 9 11 10 9 9 8 5 5 6 4 1 2 4 9 14 12 8 11 13 10 7 6 5 4 3 3 2 1 1 2 2 2 4 5 5 4 3 3 2 2 2 2 3 5 8 10 13 14 14 12 12 13 15 16 18 19 20 21 24 29 32 32 33 34 36 37 39 41 43 43 39
14 14 14 13 13 14 13 11 11 10 9 10 12 12 11 10 10 11 10 7 8 8 6 4 3 2 2 2 1 6 15 14 9 11 13 9 6 7 5 3 2 1 1 1 0 1 2 2 3 4 3 3 3 3 1 3 3 1 3 6 8 10 13 13 12 11 12 13 13 13 16 19 22 24 26 30 31 32 33 35 36 38 40 42 43 45 45
14 13 13 12 12 12 11 10 10 9 9 9 10 10 11 10 9 11 10 6 5 7 9 7 4 1 2 2 1 5 16 16 11 12 12 8 6 8 6 3 2 1 1 2 1 1 1 1 2 3 3 2 1 1 2 3 2 2 6 8 9 10 12 12 11 11 13 15 14 14 16 19 22 25 27 30 32 33 34 36 37 38 41 43 43 45 47
14 13 12 11 10 10 9 8 8 7 6 7 8 9 10 9 8 10 11 8 6 6 7 8 6 2 3 3 0 7 17 17 12 12 11 7 7 9 6 3 1 0 1 2 1 1 1 1 1 2 1 0 1 2 2 2 1 5 9 10 10 11 11 10 11 13 15 16 16 17 18 20 23 26 28 30 32 34 35 37 38 39 41 42 42 43 46
13 12 11 10 8 8 8 7 6 5 5 7 8 8 8 8 8 8 8 10 10 9 7 6 5 3 2 1 2 10 17 15 12 12 9 6 7 8 5 2 1 1 3 2 1 1 1 1 1 0 0 1 2 2 2 0 4 7 10 12 12 12 11 11 13 15 17 17 18 19 20 22 24 26 28 30 33 35 35 36 38 39 40 41 42 43 44
12 11 10 9 7 7 7 6 6 5 5 6 6 6 5 6 6 5 6 9 13 15 12 8 5 3 2 1 5 12 15 11 10 11 8 6 8 7 3 2 2 3 3 2 2 2 2 1 0 1 1 2 2 3 2 4 8 10 12 15 15 14 13 13 14 16 18 20 21 21 23 25 27 29 31 33 35 36 35 36 37 38 38 39 40 41 43
11 10 9 8 6 5 5 6 6 4 4 5 5 4 4 5 3 3 6 9 10 13 15 11 6 3 3 2 6 11 11 8 9 8 6 7 8 5 2 2 2 3 2 0 1 3 2 1 1 1 3 3 3 5 2 8 12 12 14 17 17 16 15 14 14 16 18 21 22 23 25 28 30 31 32 33 34 34 34 34 35 35 36 37 39 40 41
11 10 8 7 6 5 4 5 6 4 4 5 4 1 3 5 3 3 7 8 6 8 12 10 5 5 5 3 6 9 9 8 6 4 4 5 5 3 2 3 3 3 2 0 2 3 2 1 1 1 3 3 4 5 5 12 13 14 16 18 18 18 16 15 15 15 16 18 19 20 21 23 26 28 29 29 31 32 33 33 34 34 35 37 38 40 42
11 10 8 6 6 5 5 5 6 4 3 4 3 2 4 6 5 4 5 5 4 5 8 7 4 5 7 6 5 7 9 9 5 2 3 3 3 3 3 2 3 3 1 1 2 4 2 1 1 1 2 2 4 4 8 13 15 16 18 19 20 19 18 16 16 16 17 18 19 19 20 21 23 25 26 26 28 31 32 33 34 35 36 38 39 41 43
10 9 8 6 5 5 5 5 6 4 2 3 4 3 3 5 5 5 4 3 1 3 6 6 5 6 8 8 6 6 8 8 5 3 3 3 3 4 3 2 3 2 1 2 3 4 1 0 1 2 2 2 3 5 12 15 17 19 20 21 21 20 19 18 18 17 18 20 20 21 21 22 23 24 25 25 26 29 31 33 34 35 37 39 40 42 44
10 9 7 5 5 4 4 4 5 4 2 3 3 3 2 2 2 4 4 2 0 3 5 6 6 7 10 10 8 7 7 7 5 2 2 2 4 3 1 1 2 1 1 2 4 3 1 0 2 2 3 3 4 10 15 16 18 21 22 22 22 21 20 20 20 19 19 21 22 22 23 23 24 24 25 25 26 29 31 33 35 36 38 40 42 44 46
10 10 7 5 4 4 3 3 5 4 3 3 3 2 2 2 1 1 2 1 1 1 4 6 7 8 9 9 9 7 5 5 4 2 1 3 4 3 1 1 1 1 1 2 3 2 0 1 2 3 4 6 9 13 15 16 19 22 23 23 23 22 21 21 22 22 22 22 22 23 24 24 25 25 25 25 27 29 31 34 35 37 39 42 44 46 47
9 9 6 3 3 4 2 2 4 4 2 2 1 1 1 3 1 1 1 1 1 2 5 7 7 8 8 9 9 5 3 3 3 2 2 4 4 1 1 1 1 2 2 2 1 0 1 3 4 5 7 11 14 15 15 17 20 22 24 25 25 23 22 22 23 24 24 23 23 24 25 25 26 27 27 27 28 30 32 35 37 39 41 43 46 48 49
7 7 5 2 3 5 3 1 2 3 1 1 1 3 3 1 2 3 2 2 2 4 6 7 8 8 9 9 7 3 2 3 3 1 2 3 2 0 1 1 1 2 2 0 0 1 2 2 4 7 10 15 18 16 15 17 21 22 24 27 27 24 23 24 24 25 25 26 26 26 26 27 28 29 30 30 30 31 34 36 38 40 42 44 46 49 49
6 5 3 1 1 4 3 0 1 1 1 3 3 4 3 3 2 2 2 2 3 5 6 8 8 9 8 7 4 2 3 3 2 1 2 2 0 1 2 2 1 2 2 1 2 2 2 3 6 11 15 18 19 17 16 18 21 23 25 28 29 27 25 25 25 27 27 27 28 28 28 28 28 30 31 33 33 34 36 38 38 40 42 45 46 48 49
4 3 2 1 0 1 1 1 1 1 3 4 5 4 3 2 2 1 1 3 4 5 6 8 9 7 6 4 3 2 3 3 1 1 2 1 1 1 2 2 1 0 0 1 3 3 3 6 14 18 19 21 20 18 18 20 22 25 27 29 29 28 26 25 26 28 28 28 29 30 29 29 30 31 33 35 37 37 38 39 40 40 42 45 48 49 50
3 3 1 1 1 1 1 2 2 3 4 4 5 5 4 3 2 1 2 3 4 4 6 8 7 5 3 3 2 2 2 3 1 1 1 1 1 2 3 2 2 1 2 2 3 3 5 13 20 22 21 22 21 20 19 21 24 27 29 30 30 29 27 26 27 28 29 30 31 31 30 30 32 33 34 37 39 40 41 42 42 43 44 46 48 50 51
2 2 0 3 3 1 2 3 2 3 5 6 6 6 6 5 4 3 3 3 4 5 6 7 5 2 2 2 2 1 1 2 1 0 2 2 0 0 1 1 3 3 1 3 4 7 14 20 23 22 22 23 22 20 20 22 25 28 29 29 29 28 27 27 27 28 29 30 31 31 31 31 32 34 36 38 40 42 43 44 45 45 45 46 48 50 52
2 1 1 2 1 0 2 3 1 3 5 7 7 7 6 6 5 4 3 3 3 4 5 5 3 1 1 2 2 1 1 1 0 1 1 1 1 1 0 2 3 2 2 4 10 17 22 24 22 21 22 22 22 20 20 22 26 29 29 28 27 26 26 26 27 28 29 30 30 31 31 32 33 35 37 38 39 42 44 45 46 47 47 48 50 52 53
2 1 1 1 0 1 2 2 1 2 3 4 5 6 5 4 3 3 3 4 3 3 3 2 1 2 2 2 1 1 1 1 1 1 1 2 2 2 1 3 4 3 7 14 21 25 25 23 22 22 22 22 21 20 19 22 27 29 28 27 26 26 25 25 26 28 29 31 31 31 32 33 34 35 37 38 40 42 45 46 48 49 50 51 52 53 53
2 1 2 1 1 3 3 1 2 3 3 3 4 4 3 3 2 2 3 3 3 2 2 1 0 2 2 0 1 0 0 1 1 1 2 3 4 4 4 4 6 10 16 22 25 25 23 22 22 22 22 23 21 19 19 24 28 29 27 27 27 25 24 24 26 27 30 31 31 31 32 34 35 37 38 39 41 42 44 46 48 51 52 53 53 53 53
Wind_Direction
103 103 102 102 103 101 100 100 94 93 94 85 86 85 75 73 63 35 54 71 90 97 81 24 33 73 86 100 106 133 164 161 147 202 228 243 208 159 109 84 114 156 219 184 190 209 203 195 19 209 231 44 48 358 4 23 321 281 188 172 301 267 258 289 285 277 114 103 90 97 111 109 93 70 73 106 121 36 304 299 328 312 288 301 309 290 285
96 96 98 99 101 103 103 99 93 91 93 94 94 91 83 74 59 47 50 93 104 93 96 104 72 97 145 116 90 114 123 105 111 224 274 298 197 129 70 111 129 114 137 169 214 203 198 224 59 85 176 64 46 349 11 51 29 303 163 237 326 326 306 331 327 331 11 84 338 300 248 245 61 79 87 79 84 81 223 175 316 295 284 306 311 290 285
96 96 100 103 105 105 99 91 91 95 97 96 94 90 86 76 60 51 55 85 108 97 115 134 126 152 146 108 43 60 78 70 54 50 40 52 62 62 73 90 84 109 145 200 167 100 337 279 138 109 154 141 46 1 24 79 46 313 190 251 308 321 357 0 0 350 335 323 313 313 318 320 351 104 105 60 67 88 323 309 300 299 306 307 292 281 294
94 96 102 108 111 104 89 83 89 97 104 105 95 89 88 85 66 47 54 75 89 92 109 123 124 149 145 106 59 82 81 53 31 36 61 67 61 62 63 51 34 97 146 245 218 89 13 39 98 152 142 113 49 16 33 53 5 350 321 308 314 151 82 19 5 282 280 291 290 303 324 314 296 324 94 110 85 72 336 319 301 305 309 298 280 287 301
88 91 95 98 98 91 87 89 88 93 100 99 92 91 90 82 67 42 61 73 79 83 97 112 119 143 153 111 105 128 74 19 15 32 46 40 62 68 50 25 2 11 358 316 285 298 83 86 76 64 14 308 301 352 17 359 353 354 359 354 355 195 205 50 335 256 262 277 285 295 310 299 298 312 321 152 143 120 314 305 302 309 308 296 299 307 307
86 86 83 81 80 79 83 84 84 89 91 93 97 86 83 92 101 110 126 116 76 69 76 88 96 97 95 99 87 79 66 22 76 130 32 29 62 70 52 42 36 17 339 329 321 334 10 141 156 105 330 290 306 58 183 336 1 26 50 15 10 256 240 83 260 264 269 278 282 285 289 284 292 291 251 165 155 189 274 298 304 309 296 291 303 310 308
84 82 79 77 75 74 74 73 73 80 80 86 101 97 99 115 118 101 101 105 102 106 97 90 88 74 67 93 79 90 124 110 96 256 287 81 68 9 10 27 33 65 298 331 351 346 341 308 278 164 168 263 260 151 194 279 14 43 73 23 10 301 240 119 259 283 285 283 272 249 278 292 286 243 213 156 243 266 292 301 306 304 291 292 303 307 305
84 82 80 79 76 74 72 70 70 77 84 89 99 105 115 127 130 120 110 95 80 89 97 87 87 62 40 68 79 129 147 145 154 234 256 118 52 1 46 24 49 93 102 53 19 330 284 274 275 195 162 261 234 146 4 347 17 35 64 13 344 349 10 92 134 284 284 276 273 291 302 302 265 177 169 311 318 321 318 306 307 306 300 304 310 307 304
84 83 82 81 80 78 76 75 75 77 83 90 96 105 114 122 128 125 115 91 29 45 66 37 92 69 10 65 149 188 159 164 163 152 208 195 4 9 68 118 121 104 94 191 312 320 290 272 276 217 194 274 122 73 2 278 351 19 54 347 337 12 17 79 94 293 288 6 329 320 336 86 147 164 181 317 332 334 323 306 300 301 304 309 313 309 306
81 81 82 81 81 80 78 78 76 75 77 81 92 107 113 117 126 126 112 92 5 20 43 8 68 97 34 92 147 164 128 158 169 142 219 231 224 253 205 159 147 129 134 153 289 308 292 274 273 227 192 168 103 80 87 86 43 32 112 350 344 39 346 353 17 310 309 343 330 317 333 119 129 132 92 356 349 337 324 317 311 306 303 307 314 314 315
77 78 79 80 81 81 79 79 77 75 73 69 80 100 107 113 126 125 108 98 25 11 30 13 52 107 147 122 131 141 130 172 192 165 283 237 234 266 220 159 89 198 143 100 353 6 74 93 108 120 129 129 111 98 96 79 55 51 139 191 148 104 43 46 32 308 307 329 324 307 286 49 14 99 83 15 351 334 322 318 317 317 315 315 317 316 319
76 76 76 77 78 78 79 80 77 76 74 64 66 85 93 101 123 129 112 107 35 13 53 60 55 116 154 140 129 144 149 168 189 197 253 248 250 280 238 201 4 90 134 31 74 106 96 85 89 94 96 102 100 90 80 64 46 27 356 178 130 58 56 106 338 290 288 317 331 334 359 22 86 135 77 8 342 326 320 315 318 326 325 320 321 321 322
75 75 75 74 74 75 76 77 75 73 71 61 53 70 84 90 106 122 112 105 84 5 74 89 90 113 135 141 125 134 147 147 167 201 237 257 291 310 259 247 1 346 333 17 132 133 108 81 92 92 83 88 89 77 63 45 21 9 17 49 72 58 76 128 285 305 293 321 2 354 317 341 111 146 17 353 344 339 332 319 319 329 328 321 322 322 322
73 72 73 71 71 72 70 71 71 68 67 59 46 58 71 74 86 108 111 104 94 107 109 109 114 122 131 143 137 133 147 163 191 227 237 257 317 6 61 352 344 334 337 114 156 162 156 103 119 110 100 114 133 102 90 56 23 21 26 41 58 88 114 342 331 52 344 315 309 266 271 293 101 127 1 355 345 338 330 313 310 317 326 328 326 323 323
71 69 69 66 66 66 66 67 67 65 66 57 41 50 61 65 75 80 105 119 125 134 124 130 170 157 144 150 157 143 81 308 242 295 267 254 331 40 270 318 333 335 335 179 176 181 228 204 205 255 182 206 240 211 165 156 84 42 36 52 60 66 61 355 333 20 3 291 295 298 297 310 101 88 355 349 331 321 316 305 297 311 341 335 331 327 325
71 69 67 63 61 58 58 63 63 62 65 57 40 43 55 62 76 76 100 124 124 126 184 150 149 151 141 136 149 146 24 40 303 308 275 227 110 118 310 320 314 308 312 223 195 136 62 198 206 219 226 219 223 238 188 173 140 107 107 78 67 60 52 47 11 348 325 296 310 317 302 305 74 356 334 336 333 326 318 298 281 339 342 335 331 327 324
70 69 67 64 61 56 51 55 57 58 62 56 40 38 55 66 76 74 84 114 108 105 137 141 140 147 133 116 121 106 70 34 345 312 253 301 295 171 333 324 286 249 289 300 238 82 60 100 152 245 255 194 173 282 263 185 351 192 179 85 62 55 21 359 7 340 302 298 294 262 253 280 21 336 333 340 336 326 317 293 304 335 333 330 328 324 321
69 68 67 63 60 55 48 47 50 53 58 56 43 40 58 71 75 73 81 102 101 106 135 137 134 142 124 102 110 107 88 20 354 276 270 301 342 328 328 321 240 236 284 297 321 73 78 161 183 251 230 149 79 302 260 132 328 302 270 318 16 72 342 342 343 314 300 284 282 279 256 248 324 333 340 344 336 325 322 316 320 325 324 323 323 320 317
70 68 67 64 59 55 48 43 46 51 56 57 47 42 56 64 67 69 72 98 109 120 138 133 121 117 106 97 95 91 73 44 37 358 296 260 331 328 321 268 179 303 316 133 126 105 119 234 224 187 228 200 204 298 65 76 55 97 356 307 317 77 292 260 267 306 305 255 290 302 251 152 359 343 341 347 346 334 322 316 316 320 320 319 318 317 316
69 67 66 63 58 55 49 43 45 48 53 57 44 37 57 64 63 68 66 97 118 120 122 120 113 108 103 95 87 80 66 50 50 50 55 276 322 332 326 198 283 336 327 113 64 170 178 229 184 182 229 233 97 146 125 82 60 159 292 265 176 40 318 299 273 301 298 252 289 311 280 5 359 345 337 349 350 320 313 315 316 318 318 318 318 317 316
65 63 62 58 54 53 48 45 46 43 49 52 34 18 56 65 62 67 61 77 121 118 116 118 112 103 97 89 78 72 62 45 35 32 355 304 322 341 325 242 326 335 228 189 5 189 187 165 141 197 222 133 90 220 193 144 185 223 229 239 195 159 176 317 285 183 325 296 223 299 296 316 339 339 323 323 322 314 315 317 316 317 319 319 318 317 317
62 60 58 54 51 50 47 48 50 45 49 49 28 12 57 66 59 65 63 70 115 112 114 118 110 98 91 83 68 58 53 40 30 24 6 338 323 324 288 275 297 298 241 189 125 220 165 151 147 192 195 152 137 157 120 214 249 299 214 219 196 173 211 278 266 195 240 261 259 277 292 302 316 320 313 313 314 316 319 318 315 317 321 321 319 318 319
59 57 55 51 49 50 49 50 52 50 52 52 38 34 60 66 61 66 69 90 105 107 111 114 105 93 83 74 61 55 52 41 29 22 10 355 330 311 305 290 285 280 243 227 273 292 168 156 137 138 175 170 130 124 146 237 239 125 174 198 224 224 209 213 270 266 264 256 256 273 293 305 311 312 311 313 317 321 324 322 320 320 321 321 321 321 323
56 52 50 48 47 47 49 50 52 52 53 53 46 46 57 65 67 67 66 86 104 109 108 99 92 85 75 66 57 53 49 41 32 16 2 355 340 320 319 305 279 274 264 259 268 249 165 140 105 127 199 176 147 145 224 237 205 158 159 194 277 223 197 211 265 284 300 288 272 288 309 315 314 316 322 327 328 330 331 328 325 323 323 323 323 325 328
54 50 48 47 46 45 46 48 51 53 54 52 50 50 55 62 65 61 58 78 109 119 108 86 81 84 76 66 57 52 45 36 24 4 353 350 339 322 319 307 283 275 277 269 247 217 178 123 112 147 193 168 165 187 290 233 178 175 178 232 310 189 195 235 265 266 270 276 287 306 313 306 300 308 323 330 331 332 331 329 327 327 328 329 329 330 331
54 51 47 46 45 44 45 47 49 54 57 54 51 49 50 56 59 56 52 61 86 107 105 97 94 89 76 61 56 50 37 25 16 1 354 351 342 330 317 300 289 278 268 253 223 208 179 114 117 161 208 165 164 176 271 120 128 156 193 206 193 192 209 248 277 278 266 274 302 322 323 310 303 317 325 330 331 329 328 328 328 329 330 331 330 330 330
48 48 46 45 43 40 41 43 44 50 56 54 50 47 47 53 56 52 48 49 52 80 109 118 120 103 81 62 55 48 33 22 14 2 356 353 347 345 331 302 291 277 249 231 212 205 184 111 117 115 123 138 131 104 73 115 124 130 215 189 186 218 265 276 283 286 283 305 328 333 327 314 316 322 324 325 326 326 324 324 325 326 328 329 327 328 330
40 40 40 40 36 34 36 37 37 42 47 47 47 44 44 53 58 53 51 52 45 70 121 127 126 110 80 56 46 41 29 20 12 2 359 357 351 347 340 315 291 256 232 230 217 200 187 154 139 120 124 140 135 101 71 127 151 224 219 183 189 231 272 274 276 282 288 302 317 323 313 300 305 313 318 322 324 325 322 321 322 325 326 327 327 327 328
37 36 36 34 32 32 32 33 35 34 26 25 31 31 36 48 53 49 48 50 48 71 113 121 117 93 74 56 41 34 24 15 10 3 357 356 353 348 342 327 290 240 232 240 236 175 114 134 135 127 142 158 153 125 150 155 201 257 190 179 204 238 259 274 280 280 285 296 309 314 306 300 305 312 315 319 322 321 319 322 325 326 328 330 332 331 329
37 38 38 34 34 34 31 34 41 35 24 15 14 19 37 46 46 42 45 50 47 52 90 112 114 102 91 67 43 31 18 6 5 4 355 348 346 342 332 322 288 250 246 253 243 176 131 134 132 132 160 164 153 146 162 168 259 229 178 193 233 252 271 292 292 283 287 298 306 307 304 306 313 315 313 317 324 326 327 330 331 330 331 334 335 335 333
34 37 36 34 37 36 33 40 44 36 32 35 36 44 58 49 39 35 38 44 41 37 57 92 109 118 104 64 43 30 16 1 357 0 353 339 333 333 322 310 293 267 260 257 221 170 144 140 137 137 155 168 165 151 143 161 242 215 193 225 255 262 275 290 294 289 292 301 307 307 307 310 315 315 315 325 336 339 337 334 332 332 335 337 339 338 335
32 33 31 31 34 31 29 36 35 27 28 44 59 69 70 54 39 32 29 35 38 32 46 88 99 107 73 33 31 17 9 0 346 349 349 338 328 329 316 299 301 290 266 240 182 140 118 131 147 143 152 169 157 128 131 197 220 201 208 252 271 273 277 287 294 297 303 311 314 311 309 313 320 323 323 330 339 340 335 332 334 338 340 341 343 344 340
29 29 29 30 32 30 30 34 33 29 34 48 61 68 62 50 38 27 23 31 41 40 48 76 92 99 19 15 347 357 2 358 342 343 348 341 333 335 318 278 270 278 289 346 3 140 126 132 139 141 156 163 137 125 193 220 197 206 280 286 284 278 278 286 296 302 311 317 315 305 301 309 320 326 328 332 337 339 337 337 340 342 343 343 345 345 344
24 24 27 28 29 30 29 30 32 34 37 46 59 58 46 41 36 28 27 31 43 51 56 58 75 126 345 356 172 353 356 353 344 344 346 340 339 341 323 282 261 248 293 352 9 146 125 108 136 156 164 138 102 163 232 206 187 278 304 304 297 288 288 294 302 307 315 321 317 312 311 315 321 327 331 334 337 339 340 342 343 343 343 345 346 346 346
20 21 22 24 27 29 27 28 35 36 34 42 51 44 33 30 31 33 36 38 49 68 61 48 59 80 350 351 102 346 348 347 345 344 340 329 335 341 329 304 297 271 333 341 344 134 90 78 169 188 172 140 284 248 213 185 243 305 314 314 308 301 296 298 302 307 314 320 320 321 325 326 326 329 331 334 338 340 341 342 344 344 344 345 347 348 347
19 19 19 19 22 25 25 28 34 36 37 40 38 32 25 24 29 36 40 40 52 71 73 61 73 74 9 306 281 329 339 344 344 342 338 330 333 336 335 334 325 316 335 355 52 66 62 174 212 258 122 233 253 210 156 82 320 321 323 319 313 307 299 297 303 308 313 319 322 324 327 328 328 330 332 334 337 340 341 342 344 344 343 344 346 346 345
17 17 17 16 16 20 28 32 31 35 38 27 18 18 19 18 26 41 39 40 52 59 62 73 94 59 10 250 291 326 337 340 340 345 350 348 339 334 338 355 335 324 339 16 61 30 3 205 255 306 236 241 225 174 138 354 336 328 325 321 316 310 301 299 306 311 314 320 325 328 330 330 330 333 334 334 336 339 340 340 342 342 341 342 343 343 344
15 14 12 12 14 19 29 29 25 27 23 8 4 15 18 14 30 48 30 35 50 48 47 62 86 43 10 296 311 336 343 338 338 349 360 352 345 347 10 20 8 349 340 354 26 357 346 38 37 320 262 256 212 190 258 333 332 326 323 321 317 311 303 302 309 314 316 320 324 328 329 329 329 331 332 332 333 334 335 336 339 340 340 341 341 342 343
10 9 7 12 18 26 32 23 15 10 3 2 7 15 9 15 33 25 13 24 45 38 35 49 64 31 9 332 323 344 349 339 336 351 1 356 355 359 2 7 11 5 357 60 34 7 341 323 16 334 281 261 207 207 296 325 325 321 322 320 316 310 303 301 305 309 309 311 313 317 320 320 320 322 325 327 328 329 330 332 336 338 339 340 340 340 341
5 6 9 11 16 22 22 11 7 5 2 8 25 51 35 33 37 19 3 20 45 35 26 26 17 4 1 346 328 339 346 346 343 333 330 338 342 337 333 343 359 358 335 264 7 9 351 280 347 345 304 247 207 240 310 323 323 323 322 318 315 311 303 298 301 303 303 305 306 308 310 311 313 317 321 323 325 325 327 330 333 335 337 338 338 339 340
3 5 9 11 12 13 10 6 9 16 29 29 32 41 37 27 22 19 24 36 26 357 3 2 353 347 348 342 324 315 329 340 339 303 296 317 331 332 323 318 345 358 227 255 337 3 41 167 306 295 272 220 218 298 319 324 327 328 323 318 316 313 303 297 299 301 301 304 305 306 308 311 314 317 320 321 321 323 325 329 332 333 334 336 337 339 341
2 3 6 13 12 4 3 13 18 21 35 42 37 33 25 13 11 21 34 48 317 328 347 351 342 334 333 333 325 311 316 332 336 310 286 316 329 331 319 328 356 14 222 284 337 9 58 298 299 272 244 231 280 313 321 324 327 329 326 322 319 314 306 301 301 302 304 305 305 307 309 311 314 318 320 319 320 322 325 329 332 333 334 336 337 339 342
359 359 1 9 14 11 16 23 22 26 45 51 39 17 355 2 19 17 1 346 233 309 337 340 338 335 332 331 330 320 311 324 335 323 291 317 326 342 46 37 9 3 292 328 6 50 175 268 263 248 254 277 302 314 321 325 328 329 330 328 322 315 309 306 304 304 307 307 306 307 309 311 315 319 320 319 320 322 325 328 331 333 335 336 337 339 342
354 354 354 353 4 11 9 1 13 30 57 55 63 114 346 342 319 210 282 306 259 291 322 330 336 337 332 331 333 328 312 329 338 326 316 331 340 25 80 349 304 308 319 338 28 55 260 252 247 257 282 304 313 317 324 331 333 332 333 333 330 321 313 310 309 308 309 310 309 309 310 313 316 319 319 320 323 325 326 329 331 333 334 335 337 339 342
349 352 359 6 4 6 3 319 9 33 65 212 170 160 175 240 230 203 225 274 284 306 322 329 335 335 332 331 333 327 313 329 332 319 333 347 357 73 250 275 316 359 7 41 338 317 292 257 264 280 300 314 318 318 326 336 339 336 334 336 336 329 319 315 315 315 314 315 314 313 313 316 318 319 319 322 325 327 329 331 333 334 335 337 339 340 340
348 354 18 79 11 9 25 77 358 23 176 199 200 187 190 207 203 195 229 281 297 312 322 328 332 334 334 336 338 331 328 330 322 321 359 7 303 263 296 298 339 23 35 19 314 290 240 262 298 307 315 320 318 316 324 338 342 341 338 338 337 332 325 320 320 321 320 319 317 316 316 317 318 319 320 323 327 329 331 332 334 336 337 339 340 340 339
339 347 17 64 303 9 55 126 205 209 192 199 210 216 221 225 215 215 284 304 308 315 324 329 331 331 334 340 331 319 341 356 346 321 354 349 224 287 348 357 342 112 161 284 286 247 240 305 318 319 321 323 320 316 322 335 342 344 342 340 338 333 328 323 323 324 325 323 320 319 318 318 318 319 321 324 327 330 331 332 334 337 340 341 340 340 341
323 318 342 127 166 188 192 196 214 218 210 212 224 234 235 234 236 257 288 300 309 320 328 331 328 322 331 349 333 307 348 8 358 264 2 7 289 326 5 1 313 267 214 217 226 229 297 321 323 321 321 324 322 318 321 332 340 344 343 341 338 334 329 326 326 328 328 326 324 322 320 318 318 320 322 325 328 330 331 333 336 339 340 341 340 341 342
313 306 119 124 125 150 181 184 216 245 233 228 240 251 245 240 246 264 280 293 310 322 327 331 331 315 316 346 353 317 348 1 346 323 10 11 312 193 97 329 305 301 240 207 239 291 317 325 326 323 323 325 325 321 321 330 339 343 342 340 337 333 330 328 328 329 330 329 326 323 321 319 319 321 323 326 328 329 331 333 337 339 340 341 341 342 343
305 304 143 129 109 218 185 174 219 278 253 242 249 259 258 254 254 259 265 278 303 324 330 335 344 355 349 3 22 29 333 327 47 43 358 321 182 154 201 251 247 240 243 277 301 315 325 331 332 328 326 328 328 325 324 331 338 342 341 339 337 334 332 331 331 331 332 331 329 325 321 320 320 322 325 328 329 330 331 334 337 339 340 341 342 343 343
320 20 100 118 165 190 168 167 254 289 272 262 262 265 268 267 265 260 258 264 285 330 342 335 1 43 39 25 20 338 296 317 71 72 256 230 172 136 182 232 233 264 308 317 321 326 332 336 336 332 331 333 332 328 329 334 339 341 341 339 337 336 334 333 333 333 333 333 331 327 323 321 322 325 327 329 331 332 334 335 338 340 340 341 343 344 344
345 26 49 9 288 224 205 240 293 287 278 286 287 280 277 275 273 273 267 257 259 289 299 278 60 55 43 351 219 169 4 345 349 311 258 223 192 185 211 256 298 314 318 321 325 329 334 339 340 339 337 336 334 332 333 337 340 341 340 339 338 337 336 336 336 335 334 333 331 328 325 324 324 326 327 330 333 336 337 337 339 340 341 342 343 344 343